DH2PG-6 Weather Reports


Display with metric or nautical units.
time (UTC)temp
F
wind
direction
speed
MPH
gust
MPH
rain 1hr
in
rain 24hr
in
rain mn
in
humidity
%
barometer
mb
20190321182502 51 66 0.0 4.0 0.00 0.00 0.00 21 1031.0
20190321181506 51 64 0.0 5.0 0.00 0.00 0.00 21 1031.0
20190321180510 51 66 3.0 8.0 0.00 0.00 0.00 21 1031.0
20190321175514 52 62 0.0 0.0 0.00 0.00 0.00 21 1031.0
20190321174519 52 67 0.0 0.0 0.00 0.00 0.00 21 1031.0
20190321173523 53 62 0.0 5.0 0.00 0.00 0.00 20 1031.0
20190321172527 54 63 0.0 0.0 0.00 0.00 0.00 20 1031.0
20190321171531 55 75 0.0 0.0 0.00 0.00 0.00 20 1031.0
20190321170535 55 96 0.0 5.0 0.00 0.00 0.00 20 1031.0
20190321165539 56 93 0.0 0.0 0.00 0.00 0.00 19 1031.0
20190321164544 57 100 0.0 0.0 0.00 0.00 0.00 19 1031.0
20190321162552 58 111 0.0 4.0 0.00 0.00 0.00 17 1031.0
20190321161556 58 110 0.0 0.0 0.00 0.00 0.00 19 1031.0
20190321160600 59 102 0.0 3.0 0.00 0.00 0.00 19 1031.0
20190321155605 59 70 0.0 0.0 0.00 0.00 0.00 19 1031.0
20190321153604 59 116 0.0 0.0 0.00 0.00 0.00 19 1031.0
20190321152607 59 118 0.0 0.0 0.00 0.00 0.00 17 1031.0
20190321151612 59 106 0.0 0.0 0.00 0.00 0.00 17 1031.0
20190321145615 58 92 0.0 0.0 0.00 0.00 0.00 19 1031.0
20190321144620 59 88 3.0 6.0 0.00 0.00 0.00 17 1031.0
20190321143624 59 110 0.0 0.0 0.00 0.00 0.00 17 1031.0
20190321142628 58 69 0.0 0.0 0.00 0.00 0.00 19 1032.0
20190321141632 58 118 0.0 4.0 0.00 0.00 0.00 19 1032.0
20190321135641 57 102 0.0 3.0 0.00 0.00 0.00 19 1032.0
20190321134635 58 64 0.0 4.0 0.00 0.00 0.00 19 1032.0
20190321132644 57 54 0.0 0.0 0.00 0.00 0.00 17 1032.0
20190321131643 57 115 0.0 0.0 0.00 0.00 0.00 17 1032.0
20190321130647 57 127 0.0 0.0 0.00 0.00 0.00 17 1032.0
20190321125651 57 120 0.0 0.0 0.00 0.00 0.00 19 1032.0
20190321124655 56 145 0.0 0.0 0.00 0.00 0.00 19 1032.0
20190321123700 56 113 0.0 0.0 0.00 0.00 0.00 20 1032.0
20190321121708 55 45 0.0 7.0 0.00 0.00 0.00 20 1033.0
20190321120707 55 86 3.0 4.0 0.00 0.00 0.00 20 1033.0
20190321114716 54 68 0.0 13.0 0.00 0.00 0.00 20 1033.0
20190321113720 54 111 5.0 14.0 0.00 0.00 0.00 20 1033.0
20190321112720 54 103 0.0 0.0 0.00 0.00 0.00 20 1033.0
20190321111714 53 105 0.0 5.0 0.00 0.00 0.00 20 1033.0
20190321110718 52 111 3.0 0.0 0.00 0.00 0.00 21 1033.0
20190321105722 52 117 0.0 0.0 0.00 0.00 0.00 21 1033.0
20190321104727 51 71 0.0 16.0 0.00 0.00 0.00 21 1033.0
20190321103731 51 51 0.0 5.0 0.00 0.00 0.00 21 1033.0
20190321102731 51 114 0.0 0.0 0.00 0.00 0.00 21 1033.0
20190321100730 50 125 0.0 5.0 0.00 0.00 0.00 21 1033.0
20190321093738 49 81 0.0 0.0 0.00 0.00 0.00 21 1034.0
20190321092738 49 77 0.0 0.0 0.00 0.00 0.00 21 1033.0
20190321090746 48 113 0.0 3.0 0.00 0.00 0.00 21 1034.0
20190321085750 47 59 0.0 0.0 0.00 0.00 0.00 21 1034.0
20190321084749 47 82 0.0 0.0 0.00 0.00 0.00 22 1033.0
20190321083735 47 105 0.0 0.0 0.00 0.00 0.00 22 1033.0
20190321082739 46 81 0.0 8.0 0.00 0.00 0.00 22 1033.0
20190321081729 46 79 0.0 3.0 0.00 0.00 0.00 22 1033.0
20190321080724 45 93 0.0 9.0 0.00 0.00 0.00 22 1033.0
20190321075728 45 98 0.0 0.0 0.00 0.00 0.00 22 1033.0
20190321073737 44 95 0.0 3.0 0.00 0.00 0.00 22 1033.0
20190321072732 43 91 0.0 4.0 0.00 0.00 0.00 23 1033.0
20190321071736 43 43 0.0 3.0 0.00 0.00 0.00 23 1033.0
20190321065745 42 43 0.0 0.0 0.00 0.00 0.00 28 1033.0
20190321064750 41 43 0.0 0.0 0.00 0.00 0.00 28 1033.0
20190321063754 41 43 0.0 0.0 0.00 0.00 0.00 28 1033.0
20190321061803 39 43 0.0 0.0 0.00 0.00 0.00 28 1033.0
20190321060807 39 43 0.0 7.0 0.00 0.00 0.00 29 1033.0
20190321055811 39 43 0.0 0.0 0.00 0.00 0.00 30 1033.0
20190321054816 39 43 0.0 0.0 0.00 0.00 0.00 30 1033.0
20190321053820 38 43 0.0 0.0 0.00 0.00 0.00 30 1033.0
20190321052824 38 43 0.0 0.0 0.00 0.00 0.00 30 1033.0
20190321051829 38 43 0.0 0.0 0.00 0.00 0.00 30 1033.0
20190321050833 38 43 0.0 0.0 0.00 0.00 0.00 31 1033.0
20190321045837 38 43 0.0 0.0 0.00 0.00 0.00 31 1033.0
20190321044842 38 43 0.0 0.0 0.00 0.00 0.00 32 1033.0
20190321042850 39 43 0.0 0.0 0.00 0.00 0.00 32 1033.0
20190321041854 39 43 0.0 0.0 0.00 0.00 0.00 33 1033.0
20190321040859 39 43 0.0 0.0 0.00 0.00 0.00 33 1033.0
20190321035903 39 43 0.0 0.0 0.00 0.00 0.00 33 1033.0
20190321032916 39 43 0.0 0.0 0.00 0.00 0.00 33 1033.0
20190321031921 39 43 0.0 0.0 0.00 0.00 0.00 33 1033.0
20190321030925 39 43 0.0 0.0 0.00 0.00 0.00 33 1033.0
20190321025929 40 43 0.0 0.0 0.00 0.00 0.00 34 1033.0
20190321023938 40 43 0.0 0.0 0.00 0.00 0.00 36 1033.0
20190321022942 40 43 0.0 0.0 0.00 0.00 0.00 36 1033.0
20190321021946 40 43 0.0 0.0 0.00 0.00 0.00 37 1033.0
20190321020951 39 43 0.0 0.0 0.00 0.00 0.00 37 1033.0
20190321015000 39 43 0.0 0.0 0.00 0.00 0.00 37 1033.0
20190321013008 39 43 0.0 0.0 0.00 0.00 0.00 37 1033.0
20190321011017 40 43 0.0 0.0 0.00 0.00 0.00 36 1033.0
20190321005026 40 43 0.0 0.0 0.00 0.00 0.00 36 1033.0
20190321004030 40 43 0.0 0.0 0.00 0.00 0.00 35 1033.0
20190321003034 40 43 0.0 0.0 0.00 0.00 0.00 35 1033.0
20190321001043 40 43 0.0 0.0 0.00 0.00 0.00 34 1033.0
20190321000047 41 43 0.0 0.0 0.00 0.00 0.00 34 1033.0
20190320235051 41 43 0.0 0.0 0.00 0.00 0.00 33 1033.0
20190320234055 41 43 0.0 0.0 0.00 0.00 0.00 33 1033.0
20190320232104 41 38 0.0 0.0 0.00 0.00 0.00 36 1033.0
20190320225117 41 37 0.0 0.0 0.00 0.00 0.00 33 1034.0
20190320224122 41 37 0.0 0.0 0.00 0.00 0.00 33 1034.0
20190320223126 42 37 0.0 0.0 0.00 0.00 0.00 33 1034.0
20190320222130 42 37 0.0 0.0 0.00 0.00 0.00 34 1034.0
20190320221134 41 36 0.0 0.0 0.00 0.00 0.00 33 1034.0
20190320220139 41 35 0.0 0.0 0.00 0.00 0.00 32 1034.0
20190320215143 41 35 0.0 0.0 0.00 0.00 0.00 32 1034.0
20190320214148 42 35 0.0 0.0 0.00 0.00 0.00 31 1034.0
20190320213152 42 33 0.0 0.0 0.00 0.00 0.00 31 1034.0
20190320212157 42 33 0.0 0.0 0.00 0.00 0.00 31 1034.0
20190320211201 42 31 0.0 0.0 0.00 0.00 0.00 31 1034.0
20190320210205 42 25 0.0 0.0 0.00 0.00 0.00 31 1033.0
20190320205209 42 18 0.0 0.0 0.00 0.00 0.00 31 1033.0
20190320204214 43 18 0.0 0.0 0.00 0.00 0.00 31 1033.0
20190320203218 43 18 0.0 0.0 0.00 0.00 0.00 30 1033.0
20190320202222 43 16 0.0 4.0 0.00 0.00 0.00 30 1033.0
20190320201227 43 17 0.0 3.0 0.00 0.00 0.00 30 1033.0
20190320200203 43 9 0.0 3.0 0.00 0.00 0.00 29 1033.0
20190320195207 44 9 0.0 5.0 0.00 0.00 0.00 28 1033.0
20190320193216 44 351 0.0 3.0 0.00 0.00 0.00 28 1033.0
20190320192220 44 351 0.0 0.0 0.00 0.00 0.00 28 1033.0
20190320191225 44 345 0.0 0.0 0.00 0.00 0.00 27 1033.0
20190320190229 44 345 0.0 0.0 0.00 0.00 0.00 27 1033.0
20190320185233 45 345 0.0 7.0 0.00 0.00 0.00 27 1033.0
20190320183242 45 351 0.0 0.0 0.00 0.00 0.00 27 1033.0